Lake Chatuge Weather Center

Moon Phase Calendar



Lake Chatuge Water Level
Online Cameras

 


      

Current Conditions in Hiawassee
2/25/2021 11:52:27 AM

62°F
Feels Like 57
Clear
Humidity
46%
Pressure
30.15"
Wind
4 mph (WSW)
Dew Point
41°F
UV Index
6/10 (High)
Visibility
6 mi

Hourly Forecast

Date & Time Thu, Feb 25
11:00 AM
Thu, Feb 25
12:00 PM
Thu, Feb 25
1:00 PM
Thu, Feb 25
2:00 PM
Thu, Feb 25
3:00 PM
Thu, Feb 25
4:00 PM
Thu, Feb 25
5:00 PM
Thu, Feb 25
6:00 PM
Thu, Feb 25
7:00 PM
Thu, Feb 25
8:00 PM
Thu, Feb 25
9:00 PM
Thu, Feb 25
10:00 PM
Thu, Feb 25
11:00 PM
Fri, Feb 26
12:00 AM
Fri, Feb 26
1:00 AM
Fri, Feb 26
2:00 AM
Fri, Feb 26
3:00 AM
Fri, Feb 26
4:00 AM
Fri, Feb 26
5:00 AM
Fri, Feb 26
6:00 AM
Fri, Feb 26
7:00 AM
Fri, Feb 26
8:00 AM
Fri, Feb 26
9:00 AM
Fri, Feb 26
10:00 AM
Fri, Feb 26
11:00 AM
Fri, Feb 26
12:00 PM
Fri, Feb 26
1:00 PM
Fri, Feb 26
2:00 PM
Fri, Feb 26
3:00 PM
Fri, Feb 26
4:00 PM
Fri, Feb 26
5:00 PM
Fri, Feb 26
6:00 PM
Fri, Feb 26
7:00 PM
Fri, Feb 26
8:00 PM
Fri, Feb 26
9:00 PM
Fri, Feb 26
10:00 PM
Fri, Feb 26
11:00 PM
Sat, Feb 27
12:00 AM
Sat, Feb 27
1:00 AM
Sat, Feb 27
2:00 AM
Sat, Feb 27
3:00 AM
Sat, Feb 27
4:00 AM
Sat, Feb 27
5:00 AM
Sat, Feb 27
6:00 AM
Sat, Feb 27
7:00 AM
Sat, Feb 27
8:00 AM
Sat, Feb 27
9:00 AM
Sat, Feb 27
10:00 AM
Condition
Clear

Clear

Clear

Clear

Clear

Clear

Clear

Clear

Clear

Clouds

Clouds

Clouds

Clouds

Clouds

Clouds

Clouds

Clouds

Clouds

Rain

Rain

Rain

Rain

Rain

Rain

Rain

Rain

Rain

Rain

Rain

Rain

Rain

Rain

Rain

Rain

Rain

Rain

Rain

Rain

Rain

Clouds

Clouds

Clouds

Clouds

Rain

Rain

Rain

Rain

Clouds
Temperature 62°F62°F63°F64°F64°F63°F60°F54°F49°F47°F47°F45°F45°F46°F46°F48°F47°F48°F48°F48°F48°F48°F48°F48°F47°F47°F48°F47°F47°F47°F47°F47°F46°F46°F46°F46°F46°F46°F47°F48°F48°F48°F49°F49°F50°F50°F52°F59°F
Feels Like 58°F59°F59°F58°F58°F57°F56°F51°F46°F45°F44°F43°F42°F43°F43°F45°F45°F46°F46°F46°F45°F45°F44°F44°F42°F42°F46°F45°F42°F43°F43°F43°F42°F42°F42°F42°F42°F43°F43°F44°F45°F45°F46°F47°F48°F49°F51°F58°F
Cloudiness 1%1%1%0%0%0%0%0%0%77%63%49%42%52%57%97%91%92%93%95%96%100%100%100%100%100%100%100%100%100%100%100%100%100%100%100%100%100%100%100%100%100%100%100%100%100%100%97%
Visibility 6 mi6 mi6 mi6 mi6 mi6 mi6 mi6 mi6 mi6 mi6 mi6 mi6 mi6 mi6 mi6 mi6 mi6 mi6 mi6 mi6 mi4 mi3 mi2 mi2 mi3 mi3 mi2 mi6 mi6 mi6 mi4 mi6 mi6 mi5 mi6 mi3 mi6 mi6 mi6 mi6 mi5 mi3 mi6 mi6 mi6 mi6 mi6 mi
Precipitation 0%0%0%0%0%0%0%0%0%0%0%0%0%0%0%0%0%13%46%58%58%100%100%100%100%100%100%100%100%100%100%100%100%88%92%92%96%100%100%83%72%83%72%96%99%82%71%63%
Humidity 46%51%48%45%44%46%54%69%79%82%83%85%87%88%93%94%96%95%97%97%98%97%96%97%95%95%95%97%95%95%96%96%97%97%97%97%97%97%98%98%98%98%98%98%98%98%98%92%
Dew Point 41°F44°F43°F42°F41°F41°F42°F43°F41°F41°F40°F40°F40°F42°F43°F45°F45°F45°F46°F46°F46°F46°F46°F46°F44°F44°F45°F45°F45°F45°F45°F44°F44°F44°F44°F44°F44°F44°F45°F46°F46°F47°F47°F48°F48°F48°F50°F55°F
Pressure 30.15"30.15"30.18"30.15"30.15"30.12"30.12"30.15"30.18"30.21"30.21"30.21"30.24"30.24"30.21"30.21"30.18"30.18"30.21"30.21"30.21"30.21"30.24"30.21"30.21"30.21"30.18"30.18"30.15"30.15"30.15"30.15"30.18"30.18"30.18"30.18"30.15"30.15"30.15"30.12"30.09"30.09"30.09"30.09"30.09"30.12"30.15"30.15"
Wind Speed 3.5 mph3.8 mph5.2 mph6.3 mph6.3 mph6.4 mph4.6 mph3.2 mph2.1 mph1.2 mph1.1 mph0.7 mph1.7 mph2.6 mph2.2 mph2.9 mph2.8 mph2.7 mph3 mph2.9 mph3.4 mph4 mph5.2 mph5.4 mph6.6 mph7.6 mph2 mph2.9 mph7.4 mph6.3 mph5.7 mph4.8 mph5.3 mph5.4 mph5.1 mph4.8 mph5.3 mph4.8 mph5.1 mph4.4 mph4.7 mph5 mph4.4 mph4.2 mph3 mph2.4 mph2.6 mph4 mph
Wind
Direction
308°
NW
308°
NW
295°
WNW
288°
WNW
288°
WNW
283°
WNW
273°
W
264°
W
265°
W
273°
W
340°
NNW
31°
NNE
104°
ESE
113°
ESE
84°
E
121°
ESE
100°
E
148°
SSE
149°
SSE
105°
ESE
132°
SE
125°
SE
109°
ESE
130°
SE
128°
SE
101°
E
51°
NE
110°
ESE
89°
E
108°
ESE
131°
SE
125°
SE
121°
ESE
120°
ESE
118°
ESE
116°
ESE
115°
ESE
125°
SE
127°
SE
128°
SE
127°
SE
126°
SE
139°
SE
144°
SE
150°
SSE
139°
SE
161°
SSE
205°
SSW

Daily Forecast

Date High Low Precip. Humidity
Today
Feb 25

Clear
64 °F
45 °F
0%
49%
Friday
Feb 26

Rain
48 °F
46 °F
100%
90%
Saturday
Feb 27

Rain
64 °F
46 °F
100%
82%
Sunday
Feb 28

Rain
67 °F
55 °F
95%
72%
Monday
Mar 1

Rain
61 °F
39 °F
100%
82%
Tuesday
Mar 2

Clouds
55 °F
33 °F
0%
41%
Wednesday
Mar 3

Clear
60 °F
37 °F
22%
47%
Thursday
Mar 4

Clear
54 °F
36 °F
0%
41%
Friday
Mar 5

Clouds
53 °F
32 °F
0%
42%
Saturday
Mar 6

Clear
54 °F
32 °F
0%
37%
Sunday
Mar 7

Clear
55 °F
31 °F
0%
38%
Monday
Mar 8

Clear
54 °F
33 °F
0%
41%
Tuesday
Mar 9

Clouds
59 °F
37 °F
0%
51%
Wednesday
Mar 10

Rain
57 °F
47 °F
53%
66%
Thursday
Mar 11

Clouds
66 °F
49 °F
0%
60%
Friday
Mar 12

Rain
61 °F
52 °F
96%
78%


Temperature 8-14 Day Outlook



Precipitation 8-14 Day Outlook




Quick Links
Lake Chatuge News
Lake Chatuge Photos
Lake Chatuge Videos




About Us
Contact Us
Site Map
Search Site
Advertise With Us
   
Chatuge.USLakes.info
THE LAKE CHATUGE WEBSITE

Copyright 2021, Lakes Online
Privacy    |    Legal